Ridgedale, MO

10:28 AM CST on February 23, 2017 (GMT -0600)
Branson

Weather History for KBBG - October, 2012

Change the Weather History Date:

Thursday, October 11, 2012

  Actual Average (KHRO) Record (KHRO)
Temperature  
Mean Temperature 54 °F -  
Max Temperature 59 °F 72 °F 90 °F (1963)
Min Temperature 50 °F 49 °F 26 °F (1906)
Degree Days  
Heating Degree Days 10    
Growing Degree Days 4 (Base 50)    
Moisture  
Dew Point 45 °F    
Average Humidity 71    
Maximum Humidity 94    
Minimum Humidity 51    
Precipitation  
Precipitation 0.00 in - - ()
Sea Level Pressure  
Sea Level Pressure 30.18 in    
Wind  
Wind Speed 6 mph (SE)    
Max Wind Speed 9 mph    
Max Gust Speed -    
Visibility 8 miles    
Events Rain    
Averages and records for this station are not official NWS values.
T = Trace of Precipitation, MM = Missing Value Source: NWS Daily Summary

Daily Weather History Graph

Daily Weather History Graph

Search for Another Location

Airport or City:

Trip Planner

Search our weather history database for the weather conditions in past years. The results will help you decide how hot, cold, wet, or windy it might be!

Date:

Astronomy

Oct. 11, 2012 Rise Set
Actual Time 7:16 AM CDT 6:41 PM CDT
Civil Twilight 6:51 AM CDT 7:07 PM CDT
Nautical Twilight 6:21 AM CDT 7:36 PM CDT
Astronomical Twilight 5:51 AM CDT 8:06 PM CDT
Moon 3:02 AM CDT (10/11) 4:12 PM CDT (10/11)
Length of Visible Light 12h 16m
Length of Day
11h 24m
Waning Crescent, 18% of the Moon is Illuminated
Oct 11
Waning Crescent
Oct 15
New
Oct 21
First Quarter
Oct 29
Full
Nov 6
Last Quarter

Hourly Weather History & Observations

Time (CDT) Temp. Dew Point Humidity Pressure Visibility Wind Dir Wind Speed Gust Speed Precip Events Conditions
12:15 AM 53.6 °F 35.6 °F 51% 30.20 in 8.0 mi SE 5.8 mph - N/A   Overcast
12:35 AM 53.6 °F 35.6 °F 51% 30.19 in 2.5 mi SE 5.8 mph - N/A   Haze
12:55 AM 53.6 °F 35.6 °F 51% 30.19 in 2.5 mi SE 4.6 mph - N/A   Haze
1:15 AM 53.6 °F 35.6 °F 51% 30.19 in 3.0 mi ESE 4.6 mph - N/A   Haze
1:35 AM 53.6 °F 37.4 °F 54% 30.19 in 4.0 mi SE 4.6 mph - N/A   Haze
1:55 AM 53.6 °F 37.4 °F 54% 30.19 in 3.0 mi SE 5.8 mph - N/A   Haze
2:15 AM 53.6 °F 37.4 °F 54% 30.19 in 2.5 mi SE 6.9 mph - N/A   Haze
2:35 AM 53.6 °F 37.4 °F 54% 30.18 in 2.5 mi SE 6.9 mph - N/A   Haze
2:55 AM 53.6 °F 37.4 °F 54% 30.18 in 3.0 mi SE 3.5 mph - N/A   Haze
3:15 AM 53.6 °F 39.2 °F 58% 30.17 in 4.0 mi SE 4.6 mph - N/A   Haze
3:55 AM 53.6 °F 39.2 °F 58% 30.17 in 4.0 mi ESE 4.6 mph - N/A   Haze
4:15 AM 53.6 °F 39.2 °F 58% 30.17 in 1.2 mi SE 5.8 mph - N/A   Haze
4:35 AM 53.6 °F 39.2 °F 58% 30.17 in 8.0 mi SE 5.8 mph - N/A   Overcast
4:55 AM 53.6 °F 39.2 °F 58% 30.17 in 10.0 mi ESE 4.6 mph - N/A   Overcast
5:35 AM 53.6 °F 39.2 °F 58% 30.17 in 10.0 mi ESE 5.8 mph - N/A   Overcast
5:55 AM 53.6 °F 41.0 °F 62% 30.17 in 10.0 mi ESE 4.6 mph - N/A   Overcast
6:15 AM 51.8 °F 42.8 °F 71% 30.18 in 10.0 mi ESE 5.8 mph - N/A   Overcast
6:35 AM 51.8 °F 42.8 °F 71% 30.19 in 7.0 mi ESE 4.6 mph - N/A Rain Light Rain
6:53 AM 51.8 °F 44.6 °F 76% 30.19 in 10.0 mi SE 5.8 mph - N/A Rain Light Rain
7:47 AM 51.8 °F 44.6 °F 76% 30.20 in 10.0 mi ESE 5.8 mph - N/A Rain Light Rain
8:51 AM 50.0 °F 46.4 °F 87% 30.21 in 7.0 mi ESE 6.9 mph - N/A Rain Light Rain
9:47 AM 50.0 °F 46.4 °F 87% 30.23 in 10.0 mi ESE 8.1 mph - N/A   Overcast
10:48 AM 51.8 °F 46.4 °F 82% 30.22 in 10.0 mi SE 8.1 mph - N/A   Overcast
11:46 AM 53.6 °F 46.4 °F 77% 30.21 in 10.0 mi ESE 8.1 mph - N/A   Overcast
12:47 PM 55.4 °F 46.4 °F 72% 30.20 in 10.0 mi ESE 9.2 mph - N/A   Overcast
1:47 PM 57.2 °F 48.2 °F 72% 30.18 in 10.0 mi SE 9.2 mph - N/A   Overcast
2:45 PM 59.0 °F 48.2 °F 67% 30.16 in 10.0 mi ESE 5.8 mph - N/A   Overcast
3:53 PM 59.0 °F 50.0 °F 72% 30.14 in 10.0 mi ESE 9.2 mph - N/A   Overcast
4:45 PM 59.0 °F 50.0 °F 72% 30.13 in 10.0 mi ESE 9.2 mph - N/A   Overcast
5:45 PM 59.0 °F 51.8 °F 77% 30.12 in 10.0 mi SE 9.2 mph - N/A   Overcast
6:45 PM 57.2 °F 51.8 °F 82% 30.12 in 10.0 mi ESE 4.6 mph - N/A   Mostly Cloudy
7:45 PM 55.4 °F 51.8 °F 88% 30.14 in 10.0 mi ESE 8.1 mph - N/A   Overcast
8:45 PM 55.4 °F 53.6 °F 94% 30.16 in 10.0 mi ESE 5.8 mph - N/A   Overcast
9:15 PM 55.4 °F 53.6 °F 94% 30.17 in 10.0 mi ESE 5.8 mph - N/A   Overcast
9:35 PM 55.4 °F 53.6 °F 94% 30.18 in 10.0 mi ESE 5.8 mph - N/A   Mostly Cloudy
9:55 PM 55.4 °F 53.6 °F 94% 30.19 in 10.0 mi ESE 4.6 mph - N/A   Mostly Cloudy
10:15 PM 55.4 °F 53.6 °F 94% 30.18 in 10.0 mi SE 8.1 mph - N/A   Overcast
10:55 PM 55.4 °F 53.6 °F 94% 30.18 in 10.0 mi SSE 8.1 mph - N/A   Overcast
11:55 PM 57.2 °F 53.6 °F 88% 30.18 in 10.0 mi SSE 3.5 mph - N/A   Overcast